sat.trackr.live / text

‹ back to catalog

STARLINK-4216

NORAD 53022 · 2022-076AN

PAYLOAD ACTIVE UNKNOWN

§ Identity

Operator
Country
US
Launch date
2022-07-07
Launch site
AFETR
Launch vehicle
Mass (kg)
RCS (m²)

Purposes: comms

External: N2YO · Heavens-Above · Gunter

§ Orbital elements

Epoch: 2026-09-19T18:26:44.447136Z

Period
93.85 min
Inclination
53.1596°
Eccentricity
0.0001334
Mean motion
15.34384191 rev/d
Perigee alt
461.8 km
Apogee alt
463.7 km
Semi-major
6,840.9 km
B*
1.7486e-5
RAAN
281.0529°
Arg perigee
87.1391°
Mean anomaly
272.9764°
Rev number
23,244

§ Raw data

STARLINK-42161 53022U 22076AN  26262.76856999  .00000214  00000+0  17486-4 0  99922 53022  53.1596 281.0529 0001334  87.1391 272.9764 15.34384191232441

JSON: /api/v1/satellites/53022 · /tle

For live sub-satellite position, see the globe view (requires WebGL).

§ Visibility from observer

Set your observer location to see the next 7 days of passes ≥ 10°. The values pass through the URL so the page stays shareable.

No JS? Fill the form by hand. The geolocation button needs JavaScript.